Location: Dealu Mare
(46.0500°N, 22.8167°E)
Time: 23:24:02
(UTC+00:00)

AQUARIUS - Pass Details

Date: 15 January 2026
Orbit: 633 x 636 km, 98.0° (Epoch: 13 February)

Event Time Altitude Azimuth Distance (km) Brightness Sun altitude
Rises 05:20:23 0° 12° (NNE) 2,944 7.4 -8.1°
Reaches altitude 10° 05:22:36 10° 12° (NNE) 2,031 6.6 -7.7°
Maximum altitude 05:27:02 86° 284° (WNW) 642 4.1 -7.0°
Drops below altitude 10° 05:31:25 10° 196° (SSW) 2,013 6.8 -6.3°
Sets 05:33:36 0° 196° (SSW) 2,916 7.6 -6.0°
